Regional Weather Roundup
Issued by NWS

Home | Current Version | Previous Version | Text Only | Print | Product List | Glossary On
Versions: 1 2 3 4 5 6 7 8 9 10 11 12 13 14 15 16 17 18 19 20 21 22 23 24 25 26 27 28 29 30 31 32 33 34 35 36 37 38 39 40 41 42 43 44 45 46 47 48 49 50
000
ASUS43 KDMX 300307
RWRIA

WEATHER ROUNDUP FOR IOWA
NATIONAL WEATHER SERVICE DES MOINES IA
1000 PM CDT FRI AUG 29 2014

NOTE: "FAIR" INDICATES FEW OR NO CLOUDS BELOW 12,000 FEET WITH NO
SIGNIFICANT WEATHER AND/OR OBSTRUCTIONS TO VISIBILITY.

* - THESE STATIONS ARE NOT NWS STATIONS...THUS NOT UNDER NWS
QUALITY CONTROL.  THEY ALSO DO NOT REPORT WEATHER SUCH
AS PRECIPITATION OR FOG.

IAZ001>003-012>014-020>022-031>034-043>046-300400-
   NORTHWEST IOWA

CITY           SKY/WX    TMP DP  RH WIND       PRES   REMARKS
CARROLL *      CLOUDY    66  66 100 W6        29.79S FOG
CHEROKEE *     CLOUDY    66  66 100 W3        29.82R
DENISON *      DRIZZLE   66  66 100 NW6       29.81R
LE MARS *      MOCLDY    68  68 100 CALM      29.83R
ORANGE CITY *  PTCLDY    66  64  94 W5        29.82S
SHELDON *      MOCLDY    64  64 100 W5        29.81R
SIOUX CITY     CLOUDY    68  66  93 W6        29.83R
SPENCER        CLOUDY    67  65  93 SW3       29.81R
STORM LAKE *   LGT RAIN  66  66 100 SW5       29.81R
$$

IAZ055>058-069>071-079>083-090>094-300400-
   SOUTHWEST IOWA

CITY           SKY/WX    TMP DP  RH WIND       PRES   REMARKS
ATLANTIC *     CLOUDY    66  66 100 W3        29.79S
AUDUBON *      MOCLDY    70  66  88 CALM      29.81R
CLARINDA *     CLEAR     66  66 100 CALM      29.82R
COUNCIL BLFS * PTCLDY    68  68 100 W3        29.81R
CRESTON *      LGT RAIN  68  66  94 SW7       29.81F
HARLAN  *      MOCLDY    66  66 100 W3        29.85R
LAMONI         MOCLDY    71  68  90 SE5       29.81S
RED OAK *      MOCLDY    66  66 100 SE3       29.79F
SHENANDOAH *   CLEAR     68  68 100 W6        29.81S
$$

IAZ047>049-059>061-072>074-084-300400-
   CENTRAL IOWA

CITY           SKY/WX    TMP DP  RH WIND       PRES   REMARKS
AMES           CLOUDY    69  67  93 S7        29.77S
ANKENY *       CLOUDY    70  68  94 SW7       29.78S
CHARITON *     MOCLDY    70  70 100 S6        29.81S
DES MOINES     CLOUDY    71  67  87 SW6       29.78S
GRINNELL*      MOCLDY    68  66  94 S6        29.81S FOG
KNOXVILLE *    MOCLDY    68  66  94 S5        29.80R
MARSHALLTOWN   CLOUDY    68  67  96 SE6       29.79S
PELLA *        MOCLDY    68  68 100 S6        29.81S FOG
PERRY *          N/A     66  64  94 CALM      29.79R
$$

IAZ004>006-015-016-023>025-035-036-300400-
   NORTH CENTRAL IOWA

CITY           SKY/WX    TMP DP  RH WIND       PRES   REMARKS
ALGONA *       LGT RAIN  68  68 100 CALM      29.79S
CLARION *      CLOUDY    68  68 100 CALM      29.78F
ESTHERVILLE    CLOUDY    67  67 100 N5        29.80R
FORT DODGE *   CLOUDY    66  64  94 N5        29.79S
MASON CITY     CLOUDY    68  67  96 NW6       29.81R
FOREST CITY *  LGT RAIN  66  66 100 W3        29.80S
IOWA FALLS *   CLOUDY    70  68  94 CALM      29.79F
$$

IAZ007>011-017>019-026>030-037>042-050>054-066-300400-
   NORTHEAST IOWA

CITY           SKY/WX    TMP DP  RH WIND       PRES   REMARKS
CEDAR RAPIDS   CLOUDY    69  69 100 S7        29.80S
CHARLES CITY * CLOUDY    66  66 100 CALM      29.80S
CLINTON *      CLOUDY    73  66  78 S13       29.84S
DECORAH *      MOCLDY    68  68 100 CALM      29.78F FOG
DUBUQUE        CLOUDY    73  71  93 SW12      29.80S
MONTICELLO *   CLOUDY    70  70 100 CALM      29.80S
OELWEIN *      LGT RAIN  68  66  94 S3        29.81F
WATERLOO       LGT RAIN  68  66  93 SE5       29.78S FOG
$$

IAZ064-065-067-068-078-300400-
   EAST CENTRAL IOWA

CITY           SKY/WX    TMP DP  RH WIND       PRES   REMARKS
DAVENPORT      CLOUDY    72  66  81 S15       29.83R
IOWA CITY      CLOUDY    72  70  93 S8        29.82R
MT. PLEASANT * CLOUDY    73  72  94 S9        29.84R
MUSCATINE *    CLOUDY    73  70  88 S14G20    29.82R
QUAD CITIES    LGT RAIN  72  67  84 S12       29.83R
$$

IAZ062-063-075>077-085>089-095>099-300400-
   SOUTHEAST IOWA

CITY           SKY/WX    TMP DP  RH WIND       PRES   REMARKS
BURLINGTON     CLOUDY    72  70  93 S12       29.84S
FAIRFIELD *    CLEAR     72  68  88 S7        29.83R
FORT MADISON * CLEAR     73  72  94 S6        29.86R
KEOKUK *       CLEAR     73  72  94 S9        29.84R
OSKALOOSA *    FOG       70  68  94 S5        29.82R VSB 3/4
CENTERVILLE *  CLEAR     68  68 100 SE3       29.84S
OTTUMWA        CLEAR     69  68  96 S6        29.82R
WASHINGTON *   MOCLDY    72  70  94 S7        29.82S
$$

ABBREVIATIONS USED IN REMARKS
   TC - TEMPERATURES IN CELSIUS
  WCI - WIND CHILL INDEX
   HX - HEAT INDEX
  VSB - VISIBILITY
$$




USA.gov is the U.S. government's official web portal to all federal, state and local government web resources and services.